Home > Weather > Tashkent > Past weeks

Flag for Uzbekistan Weather for the Past 2 Weeks in Tashkent, Uzbekistan

Now
50 °F

Passing clouds.


Feels Like: 47 °F
Forecast: 35 / 47 °F
Wind: 8 mph from North

Location: Tashkent

Current Time: Feb 8, 2016 at 10:33:01 PM

Latest Report: Feb 8, 2016 at 10:00 PM


Visibility: N/A

Pressure: 30.07 "Hg

Humidity: 62%

Dew point: 37 °F

Location of TashkentLocation

Historic Weather in Tashkent — Graph

°F

Tashkent Temperature Yesterday

Maximum temperature yesterday: 73 °F (at 3:00 PM)
Minimum temperature yesterday: 30 °F (at 6:00 AM)
Average temperature yesterday: 52 °F

High & Low Weather Summary for the Past Weeks

 TemperatureHumidityPressure
High73 °F (Feb 7, 3:00 PM)100% (Jan 27, 5:30 AM)30.51 "Hg (Jan 27, 5:30 AM)
Low28 °F (Jan 29, 7:00 AM)14% (Feb 7, 2:00 PM)29.77 "Hg (Jan 25, 8:30 PM)
Average41 °F68%30.19 "Hg
* Reported Jan 24 9:00 PM — Feb 8 9:00 PM, Tashkent, Weather by CustomWeather, © 2016

Note: Actual official high and low records may vary slightly from our data, if they occured in-between our weather recording intervals... More about our weather records

Advertising

Tashkent Weather History for the Previous 24 Hours

 ConditionsComfort  
Time TempWeatherWind HumidityBarometerVisibility
9:00 PM
Mon, Feb 8
52 °FPassing clouds.10 mph62%30.04 "Hg2 mi
8:30 PM52 °FPassing clouds.10 mph67%30.01 "Hg2 mi
8:00 PM54 °FPassing clouds.6 mph58%30.01 "Hg2 mi
7:30 PM54 °FPassing clouds.12 mph58%30.01 "Hg2 mi
7:00 PM55 °FPassing clouds.9 mph44%30.01 "Hg2 mi
6:30 PM55 °FPassing clouds.7 mph47%29.98 "Hg2 mi
6:00 PM59 °FPassing clouds.3 mph36%29.98 "Hg2 mi
5:30 PM57 °FPassing clouds.6 mph44%29.98 "Hg4 mi
5:00 PM59 °FPassing clouds.6 mph39%29.95 "HgN/A
4:30 PM61 °FPassing clouds.3 mph31%29.95 "HgN/A
4:00 PM61 °FSunny.5 mph36%29.98 "Hg10 mi
3:30 PM61 °FPassing clouds.5 mph34%29.98 "HgN/A
3:00 PM61 °FSunny.6 mph34%29.98 "Hg10 mi
2:30 PM61 °FSunny.12 mph31%29.98 "Hg10 mi
2:00 PM59 °FSunny.9 mph36%29.98 "Hg10 mi
1:30 PM59 °FSunny.3 mph31%30.01 "Hg10 mi
1:00 PM59 °FPassing clouds.5 mph34%30.04 "HgN/A
12:30 PM59 °FSunny.6 mph39%30.04 "Hg10 mi
12:00 PM61 °FPassing clouds.3 mph34%30.04 "HgN/A
11:30 AM59 °FPassing clouds.5 mph34%30.04 "HgN/A
11:00 AM57 °FSunny.5 mph41%30.04 "Hg10 mi
10:30 AM55 °FSunny.3 mph41%30.04 "Hg10 mi
10:00 AM52 °FSunny.7 mph50%30.04 "Hg10 mi
9:30 AM50 °FSunny.7 mph50%30.04 "Hg10 mi
9:00 AM46 °FClear.6 mph66%30.01 "Hg4 mi
8:00 AM45 °FClear.3 mph61%30.01 "Hg4 mi
7:30 AM45 °FSunny.5 mph61%30.01 "Hg10 mi
6:30 AM46 °FClear.5 mph57%30.01 "Hg10 mi
6:00 AM46 °FClear.5 mph53%30.01 "Hg10 mi
5:30 AM46 °FPassing clouds.3 mph53%29.98 "HgN/A
5:00 AM46 °FPassing clouds.5 mph50%29.98 "HgN/A
4:30 AM45 °FPassing clouds.5 mph53%29.98 "HgN/A
4:00 AM43 °FPassing clouds.3 mph57%29.98 "HgN/A
3:30 AM43 °FPassing clouds.3 mph57%29.95 "HgN/A
3:00 AM43 °FClear.8 mph53%29.95 "Hg10 mi
2:30 AM45 °FClear.5 mph49%29.95 "Hg10 mi
2:00 AM45 °FPassing clouds.5 mph53%29.95 "HgN/A
1:30 AM39 °FClear.7 mph65%29.92 "Hg10 mi
1:00 AM39 °FPassing clouds.3 mph65%29.92 "HgN/A
12:30 AM45 °FPassing clouds.5 mph57%29.92 "HgN/A
12:00 AM46 °FPassing clouds.3 mph50%29.92 "HgN/A
11:30 PM
Sun, Feb 7
48 °FClear.5 mph46%29.92 "Hg10 mi
11:00 PM45 °FClear.7 mph49%29.92 "Hg10 mi
10:30 PM45 °FClear.9 mph49%29.89 "Hg10 mi
10:00 PM48 °FClear.7 mph40%29.89 "Hg10 mi
Weather by CustomWeather, © 2016

See weather overviewHow to use our weather pages